カタログに戻る

STARLINK-36662

運用中通信VLEO
NORAD 67832·PAYLOAD·🇺🇸 United States

打ち上げ Feb 16, 2026 から Vandenberg Space Force Base

Loading…

次のパス (今後24時間)

TLE

最新Source: CelesTrak SupGP

元期: Sep 15, 2026, 03:07 UTC

1 67832C 26033M   26258.13034722 -.00020388  00000+0 -73848-3 0  2588
2 67832  42.9995 270.1756 0001395 266.7355 180.0880 15.27587548    14

AllMySatでSTARLINK-36662をリアルタイム追跡

Download on the App Store